Oakland, CA

1:26 PM PDT on June 23, 2018 (GMT -0700)
Metro Oakland International

Weather History for KOAK - October, 2017

Change the Weather History Date:

Monday, October 9, 2017

  Actual Average Record
Temperature  
Mean Temperature 66 °F 62 °F  
Max Temperature 76 °F 71 °F 87 °F (1958)
Min Temperature 56 °F 52 °F 43 °F (1949)
Degree Days  
Heating Degree Days 0 4  
Month to date heating degree days 17 31  
Since 1 July heating degree days 90 231  
Cooling Degree Days 1 1  
Month to date cooling degree days 1 9  
Year to date cooling degree days 291 134  
Growing Degree Days 18 (Base 50)    
Moisture  
Dew Point 32 °F    
Average Humidity 36    
Maximum Humidity 57    
Minimum Humidity 14    
Precipitation  
Precipitation 0.00 in 0.03 in 0.85 in (1972)
Month to date precipitation 0.00 0.20  
Year to date precipitation 20.12 13.70  
Sea Level Pressure  
Sea Level Pressure 29.90 in    
Wind  
Wind Speed 8 mph (North)    
Max Wind Speed 30 mph    
Max Gust Speed 39 mph    
Visibility 10 miles    
Events      
T = Trace of Precipitation, MM = Missing Value Source: NWS Daily Summary

Daily Weather History Graph

Daily Weather History Graph

Search for Another Location

Airport or City:

Astronomy

Oct. 09, 2017 Rise Set
Actual Time 7:11 AM PDT 6:39 PM PDT
Civil Twilight 6:45 AM PDT 7:05 PM PDT
Nautical Twilight 6:15 AM PDT 7:36 PM PDT
Astronomical Twilight 5:44 AM PDT 8:06 PM PDT
Moon 9:57 PM PDT (10/9) 11:24 AM PDT (10/9)
Length of Visible Light 12h 20m
Length of Day
11h 27m
Waning Gibbous, 80% of the Moon is Illuminated
Oct 9
Waning Gibbous
Oct 12
Last Quarter
Oct 19
New
Oct 27
First Quarter
Nov 3
Full

Hourly Weather History & Observations

Time (PDT) Temp. Dew Point Humidity Pressure Visibility Wind Dir Wind Speed Gust Speed Precip Events Conditions
12:53 AM 69.1 °F 21.0 °F 16% 29.82 in 10.0 mi North 15.0 mph - N/A   Partly Cloudy
1:53 AM 70.0 °F 19.0 °F 14% 29.80 in 10.0 mi North 25.3 mph 39.1 mph N/A   Partly Cloudy
2:53 AM 69.1 °F 19.9 °F 15% 29.81 in 10.0 mi North 11.5 mph 27.6 mph N/A   Clear
3:53 AM 69.1 °F 18.0 °F 14% 29.83 in 7.0 mi North 16.1 mph 24.2 mph N/A   Clear
4:53 AM 66.9 °F 19.9 °F 17% 29.85 in 9.0 mi NE 15.0 mph 23.0 mph N/A   Clear
5:53 AM 64.4 °F 21.2 °F 19% 29.87 in 10.0 mi NNE 8.1 mph - N/A   Partly Cloudy
6:53 AM 60.8 °F 21.2 °F 22% 29.88 in 10.0 mi NNE 10.4 mph - N/A   Partly Cloudy
7:53 AM 62.1 °F 23.0 °F 22% 29.88 in 10.0 mi NNE 4.6 mph - N/A   Clear
8:53 AM 66.0 °F 32.0 °F 28% 29.91 in 10.0 mi SE 10.4 mph - N/A   Clear
9:53 AM 68.0 °F 37.9 °F 33% 29.93 in 10.0 mi South 9.2 mph - N/A   Clear
10:23 AM 73.0 °F 21.9 °F 15% 29.93 in 10.0 mi ENE 15.0 mph 23.0 mph N/A   Clear
10:53 AM 73.9 °F 21.9 °F 14% 29.94 in 10.0 mi ENE 16.1 mph - N/A   Clear
11:53 AM 75.0 °F 28.0 °F 18% 29.94 in 10.0 mi Variable 4.6 mph - N/A   Clear
12:53 PM 72.0 °F 37.9 °F 29% 29.93 in 10.0 mi SSW 10.4 mph - N/A   Clear
1:53 PM 73.0 °F 42.1 °F 33% 29.91 in 10.0 mi SW 9.2 mph - N/A   Clear
2:53 PM 73.9 °F 37.0 °F 26% 29.90 in 10.0 mi WSW 9.2 mph - N/A   Clear
3:53 PM 75.0 °F 37.0 °F 25% 29.91 in 10.0 mi WSW 6.9 mph - N/A   Partly Cloudy
4:53 PM 73.0 °F 46.9 °F 39% 29.92 in 10.0 mi WNW 8.1 mph - N/A   Partly Cloudy
5:53 PM 73.0 °F 39.0 °F 29% 29.92 in 9.0 mi NNW 5.8 mph - N/A   Partly Cloudy
6:53 PM 66.9 °F 46.9 °F 49% 29.93 in 9.0 mi NW 5.8 mph - N/A   Scattered Clouds
7:53 PM 63.0 °F 45.0 °F 52% 29.94 in 10.0 mi North 6.9 mph - N/A   Mostly Cloudy
8:53 PM 62.1 °F 43.0 °F 50% 29.94 in 10.0 mi Calm Calm - N/A   Mostly Cloudy
9:53 PM 64.0 °F 43.0 °F 46% 29.95 in 10.0 mi North 4.6 mph - N/A   Scattered Clouds
10:53 PM 61.0 °F 44.1 °F 54% 29.95 in 10.0 mi Calm Calm - N/A   Scattered Clouds
11:53 PM 57.9 °F 43.0 °F 58% 29.95 in 10.0 mi NE 3.5 mph - N/A   Scattered Clouds